Orbital Elements at Epoch 2459200.5 (2020-Dec-17.0) TDB
Reference: JPL 22 (heliocentric ecliptic J2000)
Element | Value | Uncertainty (1-sigma) | Units |
e | .06418702981911453 | 4.3883e-08 | |
a | 2.757622696207993 | 2.0927e-08 | au |
q | 2.580619085976624 | 1.2151e-07 | au |
i | 2.98520393062732 | 4.7246e-06 | deg |
node | 64.86901526671805 | 9.9525e-05 | deg |
peri | 355.6666567883383 | 0.00010859 | deg |
M | 153.8532084718913 | 4.2675e-05 | deg |
tp | 2458485.666740788355 (2019-Jan-02.16674079) | 0.00019733 | TDB |
period | 1672.633127850613 4.58 | 1.904e-05 5.213e-08 | d yr |
n | .2152295049079958 | 2.45e-09 | deg/d |
Q | 2.934626306439363 | 2.227e-08 | au |
|
| | Orbit Determination Parameters
Additional Information
|